Location: Cosy Dell
(34.2789°N, 117.4537°W)
Time: 12:03:52
(UTC+00:00)

Cosmos 1538 Rocket - Pass Details

Date: 14 July 2020
Orbit: 753 x 791 km, 74.0° (Epoch: 08 August)

Event Time Altitude Azimuth Distance (km) Brightness Sun altitude
Rises 03:28:17 0° 187° (S) 3,268 7.0 -5.4°
Reaches altitude 10° 03:30:42 10° 184° (S) 2,341 6.3 -5.8°
Maximum altitude 03:35:57 64° 104° (ESE) 867 4.1 -6.8°
Drops below altitude 10° 03:41:12 10° 24° (NNE) 2,336 6.6 -7.7°
Sets 03:43:36 0° 21° (NNE) 3,261 7.4 -8.1°
